This is the latest recevied weather packets stored in our database for station/object EA6AMI-5. If no packets are shown the sender has not sent any weather packets the latest 10 day(s).
| Time | Temp. | Humidity | Pressure | Rain* | Wind** | Luminosity | Snow |
|---|---|---|---|---|---|---|---|
| 1777494423 | 18.33° C | 79% | 1013.4 hPa | 0 mm | - | 0 W/m² | - |
| 1777493884 | 18.33° C | 79% | 1013.5 hPa | 0 mm | - | 0 W/m² | - |
| 1777493344 | 18.33° C | 77% | 1013.2 hPa | 0 mm | - | 0 W/m² | - |
| 1777492803 | 18.89° C | 76% | 1013.1 hPa | 0 mm | - | 0 W/m² | - |
| 1777492444 | 18.89° C | 76% | 1012.9 hPa | 0 mm | - | 0 W/m² | - |
| 1777491903 | 18.89° C | 76% | 1012.8 hPa | 0 mm | - | 0 W/m² | - |
| 1777491364 | 19.44° C | 74% | 1012.7 hPa | 0 mm | - | 0 W/m² | - |
| 1777490824 | 19.44° C | 72% | 1012.4 hPa | 0 mm | - | 0 W/m² | - |
| 1777490283 | 19.44° C | 72% | 1012.5 hPa | 0 mm | - | 0 W/m² | - |
| 1777489744 | 19.44° C | 71% | 1012.1 hPa | 0 mm | - | 0 W/m² | - |
| 1777489204 | 19.44° C | 70% | 1012.1 hPa | 0 mm | - | 0 W/m² | - |
| 1777488844 | 20° C | 70% | 1012.2 hPa | 0 mm | - | 0 W/m² | - |
| 1777488304 | 20° C | 70% | 1012 hPa | 0 mm | - | 1 W/m² | - |
| 1777487763 | 20° C | 69% | 1012 hPa | 0 mm | - | 4 W/m² | - |
| 1777487223 | 20.56° C | 68% | 1011.8 hPa | 0 mm | - | 7 W/m² | - |
| 1777486684 | 20.56° C | 67% | 1011.7 hPa | 0 mm | - | 10 W/m² | - |
| 1777486143 | 21.11° C | 65% | 1011.5 hPa | 0 mm | - | 18 W/m² | - |
| 1777485604 | 21.67° C | 63% | 1011.5 hPa | 0 mm | - | 28 W/m² | - |
| 1777485244 | 21.67° C | 64% | 1011.6 hPa | 0 mm | - | 36 W/m² | - |
| 1777484703 | 22.22° C | 64% | 1011.2 hPa | 0 mm | - | 45 W/m² | - |
| 1777484164 | 22.22° C | 62% | 1011.2 hPa | 0 mm | - | 52 W/m² | - |
| 1777483623 | 22.78° C | 62% | 1011.1 hPa | 0 mm | - | 61 W/m² | - |
| 1777483084 | 22.78° C | 61% | 1011.1 hPa | 0 mm | - | 71 W/m² | - |
| 1777482543 | 22.78° C | 61% | 1011 hPa | 0 mm | - | 82 W/m² | - |
| 1777482004 | 22.22° C | 61% | 1011 hPa | 0 mm | - | 99 W/m² | - |
* Rain latest hour (hover to see other rain measurements)
** Current wind speed in m/s (hover to see current wind gust speed)